Terminal Aerodrome Forecast
Issued by NWS Jacksonville, FL

Home | Current Version | Previous Version | Text Only | Print | Product List | Glossary On
Versions: 1 2 3 4 5 6 7 8 9 10 11 12 13 14 15 16 17 18 19 20 21 22 23 24 25 26 27 28
000
FTUS42 KJAX 041121
TAFJAX
TAF
KJAX 041121Z 0412/0512 18006KT P6SM FEW007
      TEMPO 0412/0413 3SM BR
     FM041400 20009KT P6SM FEW025
     FM041600 21012G18KT P6SM SCT250
     FM050000 19006KT P6SM SCT250
     FM050800 20003KT 3SM BR SCT005=

USA.gov is the U.S. government's official web portal to all federal, state and local government web resources and services.